This demonstration page uses our WeatherBlox Daily Observations layout. Learn more.

Left ArrowRight Arrow

Hourly Observations for January 8, 2020

Temp ( °F °C ) Dew Point ( °F °C ) Humidity (%) Winds ( mph kmh ) Pressure ( in mb ) Visibility ( mi km ) Precip ( " mm )
12:53 am 00:53 Cloudy 39 3.9 28 -2.2 65 65 W 10 17 30.10 1019 10 16 0.00 0.00
1:53 am 01:53 Cloudy 39 3.9 28 -2.2 65 65 W 12 19 30.10 1019 10 16 0.00 0.00
2:53 am 02:53 Partly Cloudy 38 3.3 26 -3.3 62 62 W 9 15 30.12 1020 10 16 0.00 0.00
3:53 am 03:53 Clear 36 2.2 26 -3.3 67 67 W 9 15 30.13 1020 10 16 0.00 0.00
4:53 am 04:53 Clear 35 1.7 25 -3.9 67 67 W 8 13 30.14 1021 10 16 0.00 0.00
5:53 am 05:53 Clear 35 1.7 24 -4.4 64 64 W 12 19 30.17 1022 10 16 0.00 0.00
6:53 am 06:53 Clear 33 0.6 22 -5.6 64 64 W 10 17 30.21 1023 10 16 0.00 0.00
7:53 am 07:53 Clear 32 0 18 -7.8 56 56 W 6 9 30.26 1025 10 16 0.00 0.00
8:53 am 08:53 Sunny 32 0 13 -10.6 45 45 WNW 13 20 30.30 1026 10 16 0.00 0.00
9:53 am 09:53 Sunny 33 0.6 9 -12.8 36 36 WNW 21 33 30.35 1028 10 16 0.00 0.00
10:53 am 10:53 Sunny 34 1.1 10 -12.2 37 37 WNW 13 20 30.39 1029 10 16 0.00 0.00
11:53 am 11:53 Sunny 34 1.1 12 -11.1 40 40 NW 16 26 30.40 1030 10 16 0.00 0.00
12:53 pm 12:53 Sunny 35 1.7 12 -11.1 38 38 WNW 14 22 30.40 1029 10 16 0.00 0.00
1:53 pm 13:53 Sunny 35 1.7 12 -11.1 38 38 NW 9 15 30.41 1030 10 16 0.00 0.00
2:53 pm 14:53 Sunny 36 2.2 12 -11.1 37 37 NW 9 15 30.42 1030 10 16 0.00 0.00
3:53 pm 15:53 Sunny 36 2.2 11 -11.7 35 35 NW 9 15 30.42 1030 10 16 0.00 0.00
4:53 pm 16:53 Sunny 35 1.7 9 -12.8 34 34 N 3 6 30.44 1031 10 16 0.00 0.00
5:53 pm 17:53 Clear 30 -1.1 15 -9.4 54 54 N 3 6 30.47 1032 10 16 0.00 0.00
6:53 pm 18:53 Clear 27 -2.8 16 -8.9 63 63 Calm 30.49 1032 10 16 0.00 0.00
7:53 pm 19:53 Clear 25 -3.9 17 -8.3 72 72 Calm 30.50 1033 10 16 0.00 0.00
8:53 pm 20:53 Clear 25 -3.9 18 -7.8 75 75 Calm 30.50 1033 10 16 0.00 0.00
9:53 pm 21:53 Clear 27 -2.8 17 -8.3 66 66 E 6 9 30.50 1033 10 16 0.00 0.00
10:53 pm 22:53 Clear 25 -3.9 17 -8.3 72 72 E 6 9 30.50 1033 10 16 0.00 0.00
11:53 pm 23:53 Clear 24 -4.4 17 -8.3 75 75 E 6 9 30.49 1033 10 16 0.00 0.00

Powered by AerisWeather